Regional Weather Roundup
Issued by NWS

Home | Current Version | Previous Version | Graphics & Text | Print | Product List | Glossary On
Versions: 1 2 3 4 5 6 7 8 9 10 11 12 13 14 15 16 17 18 19 20 21 22 23 24 25 26 27 28 29 30 31 32 33 34 35 36 37 38 39 40 41 42 43 44 45 46 47 48 49 50
000
ASUS43 KBIS 171720
RWRND

NORTH DAKOTA REGIONAL WEATHER ROUNDUP
NATIONAL WEATHER SERVICE BISMARCK ND
1200 PM CDT WED SEP 17 2014

NOTE: "FAIR" INDICATES FEW OR NO CLOUDS BELOW 12,000 FEET WITH NO
SIGNIFICANT WEATHER AND/OR OBSTRUCTIONS TO VISIBILITY.


NDZ001>003-009>011-017-171800-
NORTHWEST NORTH DAKOTA

CITY           SKY/WX    TMP DP  RH WIND       PRES   REMARKS
WILLISTON      SUNNY     68  44  42 SE5       29.96S
MINOT          SUNNY     63  47  55 NE5       30.00R
MINOT AFB      SUNNY     61  49  62 E6        30.00R
$$

NDZ018>021-031>035-040>046-171800-
SOUTHWEST NORTH DAKOTA

CITY           SKY/WX    TMP DP  RH WIND       PRES   REMARKS
BISMARCK       SUNNY     68  52  56 CALM      29.99S
DICKINSON      MOSUNNY   67  43  41 E10       29.97S
GARRISON         N/A     67  48  50 E7        29.99R
HETTINGER ARPT MOSUNNY   68  49  50 SE12      29.98S
$$

NDZ004>008-012>016-024-026-027-054-171800-
NORTHEAST NORTH DAKOTA

CITY           SKY/WX    TMP DP  RH WIND       PRES   REMARKS
GRAND FORKS    MOSUNNY   61  50  67 N12       30.00R
GRND FRKS AFB  CLOUDY    55  50  85 N15G21    30.02R
DEVILS LAKE    SUNNY     57  46  67 NE9G17    30.00S
$$

NDZ022-023-025-028>030-036>039-047>053-171800-
SOUTHEAST NORTH DAKOTA

CITY           SKY/WX    TMP DP  RH WIND       PRES   REMARKS
FARGO          SUNNY     69  50  50 N7        29.96R
JAMESTOWN      SUNNY     67  52  58 NW6       29.98S
$$



USA.gov is the U.S. government's official web portal to all federal, state and local government web resources and services.